Вернуться в каталог

EKRAN 13

АктивенСвязьGEO
NORAD 15219·PAYLOAD·🇷🇺 Russia

Запущен Aug 24, 1984 с Baikonur Cosmodrome

Loading…

TLE

СвежийSource: Space-Track

Эпоха: Sep 13, 2026, 20:47 UTC

1 15219U 84090A   26256.86659582 -.00000128  00000-0  00000+0 0  9990
2 15219  10.7000 316.2936 0016782 204.7779 165.5960  0.96025108117910

Отслеживайте EKRAN 13 в реальном времени с AllMySat

Download on the App Store